SL-4 DEB, 68757

Orbit data source: Space-Track

SL-4 DEB, 68757 is space debris in SSO originally from a launch on Thu, 16 Apr 2026 UTC via a SOYUZ-2-1B launch vehicle from the Plesetsk Missile And Space Complex (PKMTR). Debris objects in space refer to the collection of defunct objects orbiting the Earth. Examples of debris include non-operational satellites, rocket bodies, and fragments generated from explosions, collisions, or faulty payload assembly.

Loading next visibility...
Identifier
68757, 2026-083E
Orbit
SSO
Country
Flag of CISCIS
Related business
Manufacturer
TsSKB-Progress
Mission
Operational spacecraft
Bus & Motor
UNK, Unknown motor
Mass
Unknown
Launch date (UTC)
2026-04-16 (1 month ago)
Launch vehicle
SOYUZ-2-1B
Launch site
Plesetsk Missile And Space Complex (PKMTR)
Object type
Payload
Rocket body
Debris
Shape & HBR
Unknown shape, 1.1 m
Radar Cross Section
RCS unknown

Expand to show TLE details & history
Last TLE update: 2 days ago

TLE from 2 days ago
0 SL-4 DEB
1 68757U 26083E   26137.49188325  .00100029  00000-0  31110-2 0  9991
2 68757  98.2482 285.9388 0056633 326.6453  33.1222 15.31342810  4660
Epoch: 2026-05-17T11:48Z
TLE epoch observation values (Epoch: 2026-05-17T11:48:18.712Z)
Latitude
-0.00004°
Longitude
-126.33289°
Altitude
442.454 km
Speed
7.665 km/s
True Right ascension
19h 03m 45s
True Declination
0° 00' 00"
Sunlit
Object was in full shadow at epoch
Visualization orbit readout
Latitude
Unknown
Longitude
Unknown
Altitude
Unknown
Speed
Unknown
Apparent Right ascension
Unknown
Apparent Declination
Unknown
Sunlit
N/A
Visualization observer readout
Local Sidereal Time
10:05:51
Azimuth
Unknown
Elevation
Unknown
Doppler factor
Unknown
Orbital elements
Apogee altitude
507.57 km
Perigee altitude
430.018 km
Semi-major axis
6,846.931 km
Eccentricity
0.00566
Inclination
98.2482°
RAAN
285.9388°
Arg. of periapsis
326.6453°
True anomaly
33.47892°
Mean anomaly
33.1222°
Eccentric anomaly
33.30035°
Mean motion
3.83089 °/min
Orbital period
93.97 mins
BSTAR
0.003111
Loading maneuver chart data...
Computing Atmospheric mass density...
Loading historical data...
Loading historical data...
Loading historical data...
Loading historical data...
Loading historical data...
Loading historical data...
Loading historical data...

Documentation

Showing up to 5 results
|